Date,TemperatureHighF,TemperatureAvgF,TemperatureLowF,DewpointHighF,DewpointAvgF,DewpointLowF,HumidityHigh,HumidityAvg,HumidityLow,PressureMaxIn,PressureMinIn,WindSpeedMaxMPH,WindSpeedAvgMPH,GustSpeedMaxMPH,PrecipitationSumIn
2012-1-1,59.6,38.3,25.4,18.9,16.0,12.6,62,42,18,30.42,30.27,6,1,6,8.22
2012-1-2,56.0,37.4,24.8,22.5,18.1,14.8,71,48,22,30.49,30.34,5,1,5,8.22
2012-1-3,58.0,39.4,26.1,23.5,20.3,16.2,69,48,25,30.34,30.18,6,1,6,8.22
2012-1-4,59.2,41.7,28.4,25.1,22.0,19.7,73,47,23,30.41,30.23,6,1,6,8.22
2012-1-5,59.6,40.5,26.3,24.5,19.3,16.1,72,45,20,30.30,30.02,6,1,6,8.22
2012-1-6,60.5,42.0,27.9,26.6,20.8,17.4,69,45,22,30.04,29.97,10,2,10,8.22
2012-1-7,61.4,42.0,27.5,27.2,23.3,19.5,74,50,24,30.00,29.85,9,2,9,8.22
2012-1-8,45.7,37.0,31.5,32.6,26.1,22.1,79,65,51,30.11,29.89,8,1,8,8.22
2012-1-9,50.4,36.7,25.6,28.4,23.5,17.1,87,61,33,30.18,30.10,7,2,7,8.22
2012-1-10,54.7,38.9,25.7,25.2,21.1,17.1,75,50,31,30.12,29.94,10,2,10,8.22
2012-1-11,49.9,39.0,29.0,25.4,17.5,9.0,74,45,23,30.05,29.89,20,4,20,8.22
2012-1-12,43.2,32.7,23.2,13.6,7.2,1.0,55,36,18,30.11,30.01,8,1,8,8.22
2012-1-13,50.9,34.1,22.5,8.1,5.7,-0.4,47,31,14,30.22,30.05,10,3,10,8.22
2012-1-14,57.1,36.9,22.1,12.7,8.6,4.4,49,32,17,30.27,30.13,8,2,8,8.22
2012-1-15,52.2,40.0,25.9,32.4,17.4,9.4,62,41,24,30.13,29.96,7,1,7,8.22
2012-1-16,53.5,45.4,38.5,39.9,31.8,24.6,86,61,38,30.00,29.80,22,5,22,8.22
2012-1-17,50.9,40.5,31.0,28.5,23.7,19.1,69,52,33,30.15,30.00,13,3,13,8.22
2012-1-18,57.8,40.7,25.6,26.3,21.4,18.7,78,49,24,30.15,30.01,6,1,6,8.22
2012-1-19,67.9,49.1,34.7,29.5,23.8,19.0,56,38,23,30.04,29.88,6,2,6,8.22
2012-1-20,59.6,48.1,37.3,26.7,20.7,15.4,51,35,19,30.01,29.85,15,2,15,8.22
2012-1-21,61.7,46.5,28.8,32.8,23.6,17.0,66,42,25,30.02,29.65,19,3,19,8.22
2012-1-22,49.0,40.0,32.8,30.2,19.3,10.1,76,45,22,30.04,29.65,20,6,20,8.22
2012-1-23,53.6,39.8,23.8,22.2,16.4,12.7,70,41,22,30.04,29.82,6,1,6,8.22
2012-1-24,50.2,40.2,33.7,39.0,29.6,19.0,92,67,43,30.07,29.79,11,2,11,8.22
2012-1-25,53.5,40.8,31.3,29.9,25.3,20.2,79,56,31,30.14,30.04,10,3,10,8.22
2012-1-26,57.2,43.8,31.9,28.3,24.3,20.2,68,47,31,30.15,29.92,13,2,13,8.22
2012-1-27,54.4,44.5,36.4,32.3,21.3,7.9,65,42,17,30.17,29.89,18,4,18,8.22
2012-1-28,55.8,39.2,27.9,27.4,16.0,4.4,75,43,15,30.29,30.16,14,3,14,8.22
2012-1-29,58.5,40.3,25.9,14.3,11.0,8.1,54,31,16,30.29,30.12,12,2,12,8.22
2012-1-30,61.7,43.4,28.1,19.2,16.0,12.7,58,35,17,30.12,29.92,7,1,7,8.22
2012-1-31,59.0,46.6,37.6,23.5,17.7,14.8,48,32,18,30.09,29.97,7,2,7,8.22
2012-2-1,56.5,44.8,29.2,28.3,20.2,12.4,72,41,21,30.18,29.98,8,2,8,8.22
2012-2-2,51.5,43.7,37.1,29.8,21.0,12.9,74,42,24,29.98,29.77,13,3,13,8.22
2012-2-3,50.0,38.7,33.1,33.0,27.8,21.0,91,67,39,30.09,29.85,12,2,12,8.22
2012-2-4,47.7,37.0,26.3,26.2,21.0,16.7,82,55,31,30.18,30.08,18,5,18,8.22
2012-2-5,47.2,38.1,30.6,22.4,20.6,18.0,66,50,36,30.21,30.07,16,4,16,8.22
2012-2-6,53.5,38.8,26.8,31.1,23.2,17.4,84,55,33,30.08,29.92,12,2,12,8.22
2012-2-7,51.1,37.4,25.9,30.6,22.4,16.7,84,58,30,30.18,30.02,10,2,10,0.01
2012-2-8,54.5,39.8,23.8,26.2,22.0,17.0,78,51,31,30.20,30.07,5,1,5,8.22
2012-2-9,55.3,45.4,36.4,39.5,27.2,19.9,85,52,28,30.10,29.98,17,4,17,8.22
2012-2-10,57.4,42.3,30.2,30.8,25.7,22.2,80,54,28,30.16,30.04,10,2,10,8.22
2012-2-11,56.0,40.1,27.2,29.1,24.6,19.1,74,56,33,30.13,29.95,9,2,9,8.22
2012-2-12,45.7,32.5,23.4,33.5,25.1,17.5,90,75,48,30.05,29.79,6,1,6,8.22
2012-2-13,48.8,41.7,35.5,33.5,28.9,24.6,88,62,40,29.87,29.79,13,2,13,8.22
2012-2-14,53.6,41.7,32.4,32.9,28.4,25.2,91,61,37,29.82,29.66,13,2,13,8.22
2012-2-15,48.4,36.8,28.1,29.9,25.0,18.9,91,65,34,30.00,29.79,8,1,8,8.22
2012-2-16,52.6,38.9,29.0,27.2,24.8,21.8,79,59,36,30.06,29.97,6,1,6,8.22
2012-2-17,57.8,41.4,27.9,34.1,26.6,21.7,85,59,25,29.99,29.86,11,2,11,8.22
2012-2-18,56.2,41.2,28.6,30.7,19.9,12.9,85,47,20,30.03,29.92,10,2,10,8.22
2012-2-19,53.8,42.8,34.6,30.7,25.0,20.2,67,50,29,29.94,29.68,16,3,16,8.22
2012-2-20,45.2,36.6,28.3,28.8,9.5,-3.1,72,36,14,30.05,29.80,18,6,18,8.22
2012-2-21,58.3,40.9,24.8,21.8,12.4,6.0,57,33,17,30.09,29.97,14,3,14,8.22
2012-2-22,63.7,48.4,36.0,28.0,22.5,15.1,50,37,24,30.04,29.81,13,4,13,8.22
2012-2-23,64.4,49.0,37.1,28.2,20.9,3.3,59,35,21,30.00,29.67,20,5,20,8.22
2012-2-24,60.3,40.1,23.8,20.4,8.5,2.9,65,30,12,30.16,30.00,10,2,10,8.22
2012-2-25,66.1,47.6,29.9,21.9,14.8,6.2,43,27,17,30.13,29.83,13,3,13,8.22
2012-2-26,61.7,49.5,36.0,22.5,14.8,7.1,50,27,12,29.98,29.87,12,2,12,8.22
2012-2-27,58.9,48.8,40.5,28.2,20.2,10.4,45,33,23,30.06,29.78,24,7,24,8.22
2012-2-28,50.4,44.8,34.2,28.8,19.5,6.5,51,37,21,30.05,29.73,24,7,24,8.22
2012-2-29,59.2,42.4,28.8,21.4,16.0,11.1,62,38,17,30.10,29.92,8,2,8,8.22
2012-3-1,60.1,46.5,36.9,28.2,11.8,4.6,68,27,12,29.92,29.68,27,6,27,8.22
2012-3-2,42.7,34.9,29.3,22.4,13.4,-6.3,62,42,15,30.06,29.74,22,6,22,8.22
2012-3-3,49.7,35.0,18.4,13.8,9.2,4.4,61,36,20,30.20,30.06,19,5,19,8.22
2012-3-4,64.4,45.8,32.8,23.6,18.4,13.4,48,34,19,30.23,30.09,13,4,13,8.22
2012-3-5,73.3,50.2,30.6,24.8,18.5,14.2,58,32,12,30.17,29.98,7,1,7,8.22
2012-3-6,66.6,56.7,48.1,17.0,10.4,1.1,23,16,10,29.98,29.66,12,3,12,8.22
2012-3-7,66.6,53.1,40.0,27.4,10.4,-1.1,60,21,7,29.91,29.63,24,7,24,8.22
2012-3-8,47.2,40.8,34.0,28.4,22.2,15.0,67,48,33,30.34,29.88,31,7,31,8.22
2012-3-9,45.5,37.7,31.5,25.5,21.5,15.7,61,52,33,30.35,30.12,22,5,22,8.22
2012-3-10,43.2,38.3,34.4,31.6,26.3,22.2,88,62,53,30.12,29.91,10,3,10,8.22
2012-3-11,64.3,46.8,32.8,33.8,25.6,11.1,93,52,15,29.95,29.84,17,3,17,8.22
2012-3-12,70.0,53.0,36.7,22.2,17.0,10.6,49,27,10,30.07,29.95,7,2,7,8.22
2012-3-13,74.9,56.2,36.5,19.9,11.7,1.9,43,20,7,30.07,29.94,9,2,9,8.22
2012-3-14,77.2,56.9,38.2,19.3,9.4,-0.6,36,17,6,30.08,29.98,8,2,8,8.22
2012-3-15,77.8,56.7,38.2,18.2,10.4,-0.6,37,19,6,30.14,30.00,9,2,9,8.22
2012-3-16,79.4,60.6,45.4,14.1,6.9,0.2,24,13,5,30.04,29.85,9,2,9,8.22
2012-3-17,74.0,59.3,40.1,15.7,10.2,5.0,30,15,7,29.92,29.74,16,3,16,8.22
2012-3-18,64.1,53.3,39.2,33.6,25.3,14.4,79,37,18,29.76,29.55,27,7,27,8.22
2012-3-19,46.3,37.4,32.0,26.1,16.6,2.8,61,44,17,29.76,29.64,17,5,17,8.22
2012-3-20,52.2,39.9,31.1,20.7,16.1,4.2,64,41,18,29.93,29.74,16,5,16,8.22
2012-3-21,65.2,48.0,31.5,23.2,15.8,10.8,44,29,17,29.98,29.82,17,4,17,8.22
2012-3-22,74.2,55.7,43.6,26.3,21.9,15.4,42,28,11,29.95,29.84,10,3,10,8.22
2012-3-23,78.3,58.5,38.2,23.1,18.4,14.0,44,23,10,30.07,29.95,6,1,6,8.22
2012-3-24,78.8,63.2,45.9,26.0,20.3,14.0,38,20,10,30.08,29.97,9,2,9,8.22
2012-3-25,83.2,66.7,46.6,28.9,20.2,13.9,35,18,9,30.03,29.87,16,3,16,8.22
2012-3-26,79.4,67.5,56.0,23.0,14.3,-0.6,22,14,5,29.96,29.83,14,3,14,8.22
2012-3-27,76.3,60.1,42.1,25.2,15.1,5.9,41,19,7,30.06,29.93,8,2,8,8.22
2012-3-28,80.5,60.8,41.0,18.4,13.1,5.9,35,17,7,30.06,29.88,9,1,9,8.22
2012-3-29,76.0,61.2,44.6,19.0,13.9,7.0,28,16,8,30.00,29.87,17,2,17,8.22
2012-3-30,79.6,62.5,43.9,23.5,19.9,15.1,36,20,11,30.01,29.89,11,2,11,8.22
2012-3-31,83.3,65.7,46.4,26.9,22.3,15.2,38,21,11,30.00,29.83,10,2,10,8.22
2012-4-1,81.0,66.1,49.7,25.1,17.1,-7.5,34,17,3,29.88,29.59,21,4,21,8.22
2012-4-2,55.3,45.2,35.3,34.7,23.7,13.9,89,48,21,29.79,29.62,13,3,13,8.22
2012-4-3,37.4,36.2,33.3,34.7,33.6,31.0,92,90,88,29.92,29.80,6,1,6,0.23
2012-4-17,76.7,66.6,36.3,73.4,16.4,10.9,100,16,10,30.21,29.98,7,2,7,10.70
2012-4-18,83.2,57.1,43.4,26.1,17.6,7.9,40,24,7,30.07,29.87,10,1,10,10.70
2012-4-19,75.8,64.5,53.6,40.2,26.8,18.6,37,24,16,29.97,29.86,18,3,18,10.70
2012-4-20,81.7,62.6,44.1,33.6,28.5,21.2,61,30,13,30.11,29.96,9,2,9,10.70
2012-4-21,90.0,67.7,49.9,35.2,23.7,-3.7,42,23,3,30.11,30.00,10,2,10,10.70
2012-4-22,91.3,70.7,48.8,39.2,27.3,17.1,43,22,7,30.12,30.02,14,2,14,10.70
2012-4-23,88.4,71.7,56.3,41.8,35.3,23.2,51,29,10,30.16,29.98,17,3,17,10.70
2012-4-24,88.6,72.3,52.4,39.3,30.6,23.3,48,24,10,30.07,29.89,12,2,12,10.70
2012-4-25,88.4,73.1,57.2,33.6,24.9,11.0,30,18,8,30.03,29.95,11,2,11,10.70
2012-4-26,85.9,68.2,52.9,41.5,32.3,21.1,44,29,10,30.00,29.73,27,5,27,10.70
2012-4-27,77.2,61.5,48.2,36.5,31.9,27.2,54,35,18,29.96,29.83,15,4,15,10.70
2012-4-28,77.4,62.0,47.2,41.6,29.9,25.0,55,32,16,29.92,29.82,12,2,12,10.70
2012-4-29,82.4,67.6,50.8,39.0,30.4,11.4,53,28,8,29.95,29.84,14,2,14,10.70
2012-4-30,85.5,67.0,47.9,26.7,20.4,13.8,33,18,8,30.02,29.85,10,2,10,10.70
2012-5-1,85.9,69.6,52.4,32.8,23.8,17.0,32,19,10,29.94,29.77,12,3,12,10.70
2012-5-2,84.8,69.8,52.2,27.3,20.1,12.4,28,16,7,29.95,29.82,10,2,10,10.70
2012-5-3,85.7,71.8,52.6,31.4,20.3,5.6,32,15,8,30.03,29.88,12,2,12,10.70
2012-5-4,88.6,71.8,52.2,31.0,20.5,9.2,33,16,6,30.05,29.90,11,2,11,10.70
2012-5-5,87.1,71.7,56.7,24.7,16.8,9.2,23,13,6,30.02,29.85,12,3,12,10.70
2012-5-6,84.1,70.4,54.9,41.0,19.6,8.6,38,16,6,30.01,29.88,12,2,12,10.70
2012-5-7,67.5,60.6,53.8,44.9,39.8,33.7,61,47,34,30.02,29.87,21,8,21,10.70
2012-5-8,68.6,58.0,50.4,40.4,37.5,32.6,60,47,33,30.10,29.99,16,4,16,10.70
2012-5-9,81.7,60.9,47.9,43.2,38.2,29.4,72,46,18,30.12,29.91,9,2,9,10.70
2012-5-10,82.8,64.0,45.7,42.9,38.3,30.1,72,43,15,29.98,29.76,10,2,10,10.70
2012-5-11,80.1,62.3,51.5,48.9,42.4,38.7,73,50,25,30.13,29.86,14,3,14,10.70
2012-5-12,78.5,62.3,48.8,48.7,42.2,26.6,81,50,21,30.18,30.06,20,3,20,10.70
2012-5-13,72.4,59.9,51.5,46.3,41.6,34.8,73,52,33,30.18,30.06,22,2,22,10.70
2012-5-14,77.4,59.7,43.4,45.2,39.1,34.6,81,50,24,30.17,30.08,13,2,13,10.70
2012-5-15,86.4,66.7,46.3,45.0,33.5,18.2,73,35,10,30.18,30.06,8,2,8,10.70
2012-5-16,83.9,70.2,50.8,38.3,29.0,16.1,43,23,8,30.15,29.96,11,2,11,10.70
2012-5-17,91.3,75.1,60.8,32.5,21.3,7.3,27,15,5,30.01,29.81,13,3,13,10.70
2012-5-18,84.2,72.9,57.8,33.4,20.1,11.6,26,14,7,29.88,29.69,16,3,16,10.70
2012-5-19,87.7,68.9,51.5,25.9,20.5,13.1,28,17,7,30.00,29.85,12,2,12,10.70
2012-5-20,87.1,70.3,53.1,44.8,34.5,21.3,47,28,11,30.14,29.99,9,2,9,10.70
2012-5-21,93.2,75.9,56.0,50.8,41.3,28.4,66,33,11,30.18,29.99,10,2,10,10.70
2012-5-22,94.7,78.8,63.4,48.0,29.6,1.1,50,22,5,30.05,29.80,12,3,12,10.70
2012-5-23,94.0,79.1,63.0,24.9,12.4,-2.1,18,9,3,29.83,29.61,20,5,20,10.70
2012-5-24,89.8,76.5,63.0,35.4,28.1,20.2,27,17,10,29.77,29.65,16,4,16,10.70
2012-5-25,89.5,75.4,60.8,31.8,20.7,8.8,27,15,5,29.84,29.74,13,3,13,10.70
2012-5-26,88.6,75.8,63.7,26.6,19.6,10.6,21,13,6,29.88,29.75,19,6,19,10.70
2012-5-27,79.4,66.0,50.4,26.1,1.2,-30.7,21,10,1,29.98,29.87,14,4,14,10.70
2012-5-28,88.9,66.7,43.7,20.4,11.0,-3.7,31,13,4,30.06,29.94,9,1,9,10.70
2012-5-29,93.1,72.2,47.9,19.8,11.6,-2.7,31,12,3,30.08,29.92,7,2,7,10.70
2012-5-30,90.2,75.0,55.8,23.7,6.8,-12.3,21,9,2,30.01,29.88,13,2,13,10.70
2012-5-31,93.4,76.4,58.7,43.0,29.6,3.3,31,19,7,30.02,29.91,8,2,8,10.70
2012-6-1,99.0,80.5,65.2,49.5,38.6,21.8,44,26,7,30.03,29.85,10,2,10,0.00
2012-6-2,96.1,82.0,65.9,44.7,27.3,8.7,37,17,4,29.97,29.82,10,2,10,0.00
2012-6-3,97.2,79.5,58.5,34.0,20.3,11.1,26,13,5,30.00,29.90,13,2,13,10.70
2012-6-4,92.0,75.3,65.9,52.1,38.9,28.3,55,28,16,30.02,29.94,18,3,18,10.70
2012-6-5,94.0,74.7,58.7,46.8,41.0,28.9,58,34,11,30.02,29.83,8,2,8,10.70
2012-6-6,96.8,79.3,60.8,49.1,30.5,12.9,47,22,5,29.95,29.82,8,2,8,10.70
2012-6-7,95.0,79.0,56.9,42.7,22.2,11.1,34,14,5,30.01,29.86,10,2,10,10.70
2012-6-8,97.9,79.5,58.7,48.0,24.5,1.7,39,17,3,30.03,29.83,8,2,8,10.70
2012-6-9,97.2,80.6,60.8,26.6,11.6,-7.9,21,9,2,29.93,29.74,16,3,16,10.70
2012-6-10,93.4,78.2,60.8,30.2,22.1,14.7,21,13,6,29.95,29.83,13,3,13,10.70
2012-6-11,92.9,77.0,55.8,37.3,23.5,12.9,35,16,6,30.08,29.95,17,2,17,10.70
2012-6-12,94.0,80.5,68.8,49.8,39.4,27.5,45,26,10,30.13,29.93,22,5,22,10.70
2012-6-13,95.4,80.5,61.6,51.8,32.4,16.6,50,22,6,30.00,29.83,6,2,6,10.70
2012-6-14,97.0,81.5,61.9,31.0,15.9,-7.1,25,10,2,29.97,29.85,12,2,12,10.70
2012-6-15,95.0,79.6,59.9,28.5,20.5,11.1,28,13,5,29.98,29.87,10,2,10,10.70
2012-6-16,95.8,78.1,68.4,46.9,38.9,18.8,42,27,7,30.10,29.94,14,2,14,10.70
2012-6-17,96.7,79.8,60.5,50.5,35.8,13.2,58,26,5,30.12,29.87,19,2,19,10.70
2012-6-18,97.6,82.6,65.2,33.0,18.2,-0.5,23,11,3,29.96,29.79,10,3,10,10.70
2012-6-19,98.3,83.1,65.9,30.3,18.7,2.2,22,10,3,29.89,29.76,12,2,12,10.70
2012-6-20,102.6,84.4,64.8,31.0,13.6,-4.6,19,8,2,29.96,29.80,10,2,10,10.70
2012-6-21,94.1,81.7,73.1,54.8,47.1,18.0,47,32,10,30.10,29.96,12,4,12,10.70
2012-6-22,99.4,84.1,66.6,52.6,44.0,26.8,46,27,8,30.07,29.90,11,2,11,10.70
2012-6-23,100.1,85.0,73.8,45.7,41.7,34.7,35,24,12,29.99,29.90,11,2,11,10.70
2012-6-24,101.9,88.9,70.7,44.2,34.6,17.2,29,16,5,30.09,29.95,13,2,13,10.70
2012-6-25,99.0,86.0,66.6,43.1,32.6,21.4,36,16,7,30.11,29.96,9,2,9,0.00
2012-6-26,99.0,86.4,71.1,38.5,30.8,23.0,25,14,7,30.05,29.90,10,2,10,10.70
2012-6-27,101.5,84.8,67.7,47.5,38.1,16.2,41,22,5,30.06,29.97,15,2,15,10.70
2012-6-28,102.6,85.3,65.9,46.4,39.5,25.6,44,22,7,30.14,30.00,12,2,12,10.70
2012-6-29,101.3,86.6,72.0,47.0,39.9,28.5,37,21,8,30.11,29.94,13,2,13,10.70
2012-6-30,105.5,87.6,68.6,45.4,37.2,23.2,36,19,7,30.00,29.87,10,2,10,10.70
2012-7-1,98.8,84.8,68.4,50.1,43.4,35.6,42,25,13,30.01,29.89,14,3,14,10.70
2012-7-2,101.2,84.0,69.8,59.8,48.1,39.3,70,31,13,30.05,29.87,20,3,20,10.70
2012-7-3,95.8,80.4,66.4,65.3,52.6,42.8,68,41,21,30.04,29.87,16,2,16,10.70
2012-7-4,94.7,78.2,70.2,57.4,53.0,47.6,60,43,23,30.02,29.87,10,2,10,10.70
2012-7-5,92.3,73.3,65.3,59.3,55.8,47.0,75,56,28,30.11,29.95,24,2,24,10.70
2012-7-6,88.6,73.3,61.7,60.0,54.9,48.6,81,55,32,30.12,30.02,14,2,14,10.70
2012-7-7,82.3,70.2,62.6,60.1,54.7,50.7,77,59,37,30.18,30.09,11,1,11,10.70
2012-7-8,92.3,77.7,63.7,58.8,52.1,37.8,80,46,16,30.18,30.06,11,2,11,10.70
2012-7-9,89.1,77.0,68.0,58.7,53.6,48.9,70,46,30,30.17,30.05,12,3,12,10.70
2012-7-10,86.2,74.9,66.1,58.1,54.9,50.6,73,52,32,30.19,30.05,10,2,10,10.70
2012-7-11,91.4,76.9,65.5,57.8,54.7,50.7,70,48,27,30.18,30.03,14,2,14,10.70
2012-7-12,95.8,77.9,63.2,58.8,54.3,47.4,74,47,23,30.14,29.99,9,2,9,10.70
2012-7-13,95.2,83.0,70.9,54.3,49.2,44.1,52,32,19,30.14,30.01,8,2,8,10.70
2012-7-14,95.8,83.7,73.8,51.5,44.0,38.3,39,26,16,30.14,30.02,11,2,11,10.70
2012-7-15,95.0,83.0,69.1,49.9,43.3,35.3,39,26,15,30.12,29.96,13,3,13,10.70
2012-7-16,86.9,77.3,68.4,51.8,49.5,46.2,51,39,28,30.06,29.95,8,2,8,10.70
2012-7-17,94.0,79.7,64.6,54.6,47.5,40.9,69,35,18,30.05,29.93,17,2,17,10.70
2012-7-18,96.5,79.1,67.5,57.1,50.2,45.6,56,38,20,30.11,29.99,22,2,22,10.70
2012-7-19,93.8,79.4,63.9,57.8,51.6,43.5,68,41,18,30.17,30.06,7,2,7,0.00
2012-7-20,95.8,81.8,64.4,53.0,48.3,39.8,58,33,15,30.20,30.05,4,0,4,10.70
2012-7-21,92.9,82.8,72.0,54.1,49.9,42.6,49,33,19,30.19,30.04,7,1,7,10.70
2012-7-22,93.1,80.2,66.6,54.7,49.4,42.4,55,36,19,30.16,30.06,12,2,12,10.70
2012-7-23,94.0,77.3,64.4,58.4,50.3,44.3,60,41,19,30.15,30.05,10,1,10,10.70
2012-7-24,89.3,75.3,62.6,59.8,51.3,47.9,69,45,25,30.10,29.96,14,2,14,0.21
2012-7-28,93.2,83.8,41.9,54.8,52.1,41.9,100,35,24,30.26,30.04,8,2,8,12.72
2012-7-29,94.9,81.9,70.4,56.9,51.1,41.6,59,37,18,30.19,30.03,11,2,11,12.72
2012-7-30,99.4,84.5,67.3,52.3,47.2,43.1,50,28,17,30.15,30.00,8,1,8,12.72
2012-7-31,98.5,85.4,74.3,51.1,45.0,35.3,37,26,12,30.14,30.00,10,2,10,12.72
2012-8-1,99.4,80.7,66.2,51.0,47.5,41.6,53,33,15,30.16,30.01,17,2,17,12.72
2012-8-2,97.6,81.0,65.9,56.3,48.4,42.3,56,35,16,30.11,29.93,18,3,18,12.72
2012-8-3,92.9,76.0,64.1,56.7,51.2,42.4,69,44,19,30.06,29.96,15,2,15,12.72
2012-8-4,96.1,78.6,64.1,52.8,48.8,41.6,61,38,16,30.16,29.99,15,2,15,12.72
2012-8-5,89.3,77.6,65.7,56.9,53.1,49.3,69,44,28,30.25,30.14,10,3,10,12.72
2012-8-6,96.8,79.0,64.1,60.9,54.0,45.2,83,46,19,30.26,30.09,12,2,12,12.72
2012-8-7,101.5,81.1,67.3,61.5,51.5,42.7,74,39,16,30.16,30.01,12,2,12,12.72
2012-8-8,98.8,80.0,64.8,59.6,49.2,38.4,73,39,16,30.19,30.07,11,2,11,12.72
2012-8-9,100.1,84.0,65.7,50.7,40.6,33.0,46,24,11,30.21,30.06,9,2,9,12.72
2012-8-10,98.3,84.1,70.4,49.4,40.0,35.2,34,22,12,30.16,30.00,11,2,11,12.72
2012-8-11,99.4,84.9,71.5,44.3,40.0,34.8,32,21,11,30.12,29.98,10,2,10,12.72
2012-8-12,100.1,81.6,65.9,56.1,44.7,35.6,70,30,12,30.14,30.00,18,3,18,12.72
2012-8-14,94.1,82.9,0.0,52.5,47.9,0.0,46,30,20,31.64,29.93,132,3,132,13.29
2012-8-15,95.8,79.8,62.6,53.8,48.0,42.3,63,36,18,30.02,29.88,9,1,9,0.35
2012-8-16,93.2,79.1,67.9,57.7,49.7,45.6,63,37,22,30.14,29.97,21,4,21,0.35
2012-8-17,92.2,75.4,64.8,56.3,52.4,46.0,67,47,23,30.15,29.97,12,2,12,0.35
2012-8-18,95.4,75.0,59.2,62.2,50.8,42.8,75,46,18,30.07,29.92,21,2,21,0.35
2012-8-19,94.1,78.6,66.6,56.9,52.2,46.5,59,41,21,30.09,29.95,14,3,14,0.35
2012-8-20,85.1,73.2,67.9,57.9,53.2,48.3,65,50,30,30.10,29.99,12,2,12,13.49
2012-8-21,95.0,75.7,60.3,58.0,52.9,40.5,76,49,17,30.09,29.98,12,2,12,0.00
2012-8-22,79.9,72.5,65.7,57.7,54.0,49.7,68,53,42,30.10,30.02,10,2,10,0.00
2012-8-23,82.4,71.6,59.8,59.5,53.4,49.8,80,54,34,30.06,29.95,13,2,13,0.00
2012-8-24,85.5,71.3,63.0,55.2,52.4,47.7,70,53,30,30.01,29.89,9,2,9,0.00
2012-8-25,94.9,75.9,59.0,56.6,48.1,37.8,75,42,16,30.02,29.89,15,2,15,0.00
2012-8-26,89.8,78.5,69.7,57.0,49.0,41.7,63,37,24,30.12,30.02,18,3,18,0.08
2012-8-27,93.6,80.2,64.1,54.0,43.8,32.4,59,31,12,30.21,30.09,10,3,10,0.00
2012-8-28,96.1,79.6,60.7,49.7,41.2,30.3,50,27,10,30.23,30.05,10,2,10,0.00
2012-8-29,95.4,78.6,59.8,46.9,40.4,28.4,51,27,15,30.14,29.96,8,2,8,0.00
2012-8-30,94.3,78.5,58.9,42.4,36.2,24.2,42,23,12,30.08,29.94,9,2,9,0.00
2012-8-31,94.0,78.7,58.0,39.9,35.0,27.2,41,22,13,30.11,30.00,11,2,11,0.00
2012-9-1,96.1,80.2,63.9,44.3,38.3,32.0,38,23,11,30.14,30.00,8,1,8,0.00
2012-9-2,97.9,80.1,62.3,51.6,45.0,38.6,55,31,15,30.12,29.98,10,1,10,0.00
2012-9-3,95.6,81.3,68.8,50.1,44.9,38.8,47,29,15,30.11,30.00,11,2,11,0.00
2012-9-4,96.8,80.9,68.2,47.5,42.4,36.0,46,27,14,30.10,29.97,8,2,8,0.00
2012-9-5,87.3,77.5,68.2,45.0,41.6,37.1,35,28,21,30.07,29.96,11,2,11,0.00
2012-9-6,96.5,79.1,64.1,52.8,46.6,38.0,47,33,19,30.09,29.95,11,1,11,0.00
2012-9-7,92.0,76.4,64.6,57.1,49.4,44.9,71,41,21,30.18,29.97,16,3,16,0.09
2012-9-8,75.1,64.8,57.2,45.3,43.7,41.3,60,47,32,30.28,30.17,13,3,13,0.00
2012-9-9,77.4,64.6,52.0,53.4,47.1,42.2,72,55,34,30.23,30.12,10,2,10,0.00
2012-9-10,83.2,69.8,57.8,54.0,50.7,44.6,76,53,31,30.16,30.01,12,1,12,0.00
2012-9-11,82.8,69.2,60.1,57.0,50.4,46.8,86,54,30,30.07,29.98,12,2,12,0.06
2012-9-12,75.1,63.3,59.2,57.3,53.8,47.6,86,72,46,30.13,30.01,11,2,11,0.06
2012-9-13,69.1,59.7,53.1,49.5,45.7,39.9,84,61,41,30.32,30.13,17,3,17,0.07
2012-9-14,73.1,59.3,47.7,44.3,40.1,31.4,78,51,30,30.33,30.21,8,2,8,0.00
2012-9-15,82.3,62.6,44.5,40.2,35.3,31.1,70,39,19,30.26,30.09,7,1,7,0.00
2012-9-16,88.9,68.8,49.1,39.8,29.5,11.0,58,29,6,30.13,29.98,10,2,10,0.00
2012-9-17,85.0,68.4,52.4,37.0,28.0,20.0,39,24,10,30.09,29.93,21,3,21,0.00
2012-9-18,83.5,65.3,47.7,42.1,34.6,26.7,65,35,13,30.20,30.08,5,1,5,0.00
2012-9-19,87.1,69.3,52.9,37.9,28.2,16.2,45,24,8,30.17,30.05,10,1,10,0.00
2012-9-20,86.6,69.4,51.7,33.2,22.5,13.0,34,19,7,30.14,30.01,11,2,11,0.00
2012-9-21,91.3,68.7,50.4,29.2,25.0,19.2,39,21,9,30.13,30.03,7,1,7,0.00
2012-9-22,88.2,70.5,51.5,36.6,28.6,20.0,46,24,10,30.17,30.07,10,1,10,0.00
2012-9-23,85.9,74.6,62.5,33.8,29.7,25.4,27,20,12,30.21,30.09,9,2,9,0.00
2012-9-24,83.2,71.3,61.6,45.0,31.9,25.5,53,24,16,30.12,29.97,13,2,13,0.00
2012-9-25,75.6,63.9,52.6,48.2,42.6,37.0,69,47,25,30.07,29.93,12,2,12,0.02
2012-9-26,77.6,64.7,52.2,44.8,40.3,36.2,65,43,24,30.05,29.97,9,1,9,0.00
2012-9-27,82.8,67.7,52.0,44.7,39.8,34.8,64,39,19,30.11,30.00,7,1,7,0.00
2012-9-28,77.2,66.0,57.2,49.6,45.7,39.7,64,48,34,30.10,30.00,11,2,11,0.00
2012-9-29,83.5,66.0,52.4,48.9,44.4,36.2,75,49,21,30.13,30.01,8,2,8,0.00
2012-9-30,80.1,65.8,50.8,46.1,38.2,27.9,70,40,18,30.11,29.98,9,2,9,0.00
2012-10-1,81.9,66.8,51.3,42.1,36.0,29.9,59,34,16,30.16,30.05,10,2,10,0.00
2012-10-2,86.0,65.5,48.6,43.8,34.7,23.5,63,35,13,30.10,29.92,8,1,8,0.00
2012-10-3,86.0,67.6,51.5,35.7,26.6,17.7,43,24,9,30.04,29.94,15,2,15,0.00
2012-10-4,84.1,69.9,57.2,34.0,28.6,22.5,33,22,11,30.14,30.01,12,2,12,0.00
2012-10-5,80.8,69.0,54.9,36.3,29.0,22.8,39,23,13,30.09,29.94,13,2,13,0.00
2012-10-6,76.0,63.1,49.0,40.3,33.0,23.3,57,35,15,30.03,29.87,11,2,11,0.00
2012-10-7,70.2,52.9,41.2,34.9,29.6,22.5,65,44,18,30.08,29.95,6,1,6,0.00
2012-10-8,76.7,57.7,38.9,36.5,27.7,22.7,65,35,16,30.08,29.92,7,1,7,0.00
2012-10-9,77.9,62.5,47.0,34.6,28.8,23.7,41,29,17,30.05,29.95,9,1,9,0.00
2012-10-10,77.8,61.4,43.9,36.6,31.0,25.9,57,33,17,30.13,29.97,4,1,4,0.00
2012-10-11,77.8,65.0,50.0,41.7,36.2,28.2,53,35,20,30.08,30.00,10,1,10,0.00
2012-10-12,76.0,63.5,53.5,48.6,38.3,21.1,64,42,18,30.05,29.88,17,4,17,0.01
2012-10-13,62.5,53.3,40.0,34.3,30.5,27.2,66,43,28,30.12,30.00,17,3,17,0.00
2012-10-14,72.5,55.8,41.0,37.6,33.2,29.2,71,45,24,30.23,30.11,7,1,7,0.00
2012-10-15,75.1,58.8,41.6,35.8,30.7,27.2,62,36,19,30.16,29.96,7,1,7,0.00
2012-10-16,78.3,62.2,45.4,34.8,27.4,19.8,51,29,12,29.99,29.79,8,2,8,0.00
2012-10-17,73.8,63.1,53.3,34.8,13.6,-16.2,37,18,3,30.00,29.84,18,4,18,0.00
2012-10-18,73.4,59.5,45.5,16.7,7.2,-4.6,22,13,8,30.08,29.97,14,3,14,0.00
2012-10-19,76.9,59.8,46.4,24.1,18.2,12.5,31,20,12,30.08,29.93,8,2,8,0.00
2012-10-20,65.9,52.3,41.9,25.6,21.0,17.2,42,30,18,29.97,29.93,3,1,3,0.00
2012-10-21,75.4,67.4,32.0,74.8,31.4,0.0,100,26,18,29.97,29.85,46,2,14,13.89
2012-10-22,73.3,61.5,48.6,39.3,32.1,26.0,57,34,22,30.00,29.88,8,1,8,13.89
2012-10-23,76.5,63.2,48.2,36.4,29.8,26.5,50,30,17,30.00,29.87,7,1,7,13.89
2012-10-24,61.9,58.1,54.9,28.1,27.1,25.2,34,30,27,29.93,29.89,2,0,2,0.00
2012-10-26,55.4,45.6,32.0,32.0,20.0,16.3,100,37,22,30.74,30.11,9,4,9,13.89
2012-10-27,60.7,47.6,32.0,23.5,19.1,13.1,57,33,19,30.15,30.00,6,1,6,13.82
2012-10-28,67.5,51.5,36.5,22.0,15.7,10.6,39,25,15,30.13,30.03,8,1,8,0.00
2012-10-29,74.2,55.5,39.6,24.6,18.8,13.4,43,25,12,30.17,30.04,7,1,7,0.00
2012-10-30,74.0,56.4,40.3,22.9,17.9,13.1,38,23,12,30.13,30.02,8,1,8,0.00
2012-10-31,73.1,54.8,38.5,23.2,18.7,15.4,44,26,12,30.14,30.03,5,1,5,0.00
2012-11-1,73.1,54.6,36.0,24.5,16.5,7.5,46,24,8,30.11,29.97,5,1,5,0.00
2012-11-2,71.3,56.0,39.8,25.1,19.0,13.8,39,24,15,30.05,29.95,8,1,8,0.00
2012-11-3,69.5,53.3,42.1,26.6,22.8,18.2,43,31,18,30.13,30.00,6,1,6,0.00
2012-11-4,70.2,52.5,35.3,23.7,16.3,8.0,45,26,10,30.20,30.10,12,2,12,0.00
2012-11-5,69.5,53.0,36.0,25.4,19.0,13.9,43,27,16,30.23,30.10,6,1,6,0.00
2012-11-6,73.1,54.8,33.1,33.1,24.5,19.7,100,32,17,30.35,30.11,4,1,4,13.89
2012-11-7,75.1,54.4,37.8,28.2,21.4,18.5,49,30,13,30.16,30.00,4,1,4,0.00
2012-11-8,68.0,55.1,40.1,27.3,23.4,18.8,46,30,19,30.03,29.90,6,1,6,0.00
2012-11-9,59.9,52.7,45.9,45.9,28.6,20.7,78,40,29,29.95,29.78,8,1,8,13.92
2012-11-10,52.2,44.3,32.4,40.8,28.1,15.0,68,54,31,29.85,29.69,16,4,16,0.00
2012-11-11,41.4,33.2,26.1,22.4,9.7,-1.6,69,40,17,30.25,29.84,19,3,19,0.00
2012-11-12,53.3,33.7,22.7,5.9,2.3,-4.6,41,27,12,30.33,30.18,7,1,7,0.00
2012-11-13,59.4,38.6,22.0,11.3,6.0,1.0,45,27,12,30.22,30.12,6,1,6,0.00
2012-11-14,63.7,41.3,24.7,18.6,11.2,6.9,57,31,12,30.25,30.10,5,1,5,0.00
2012-11-15,60.3,45.4,29.0,22.4,12.5,6.0,48,28,13,30.22,30.11,12,2,12,0.00
2012-11-16,65.0,49.0,38.7,21.9,17.9,12.5,44,30,17,30.23,30.10,6,1,6,0.00
2012-11-17,58.5,47.9,34.9,25.2,20.4,14.8,48,34,23,30.18,30.06,5,0,5,0.00
2012-11-18,65.0,49.8,42.5,41.5,33.5,23.2,86,55,32,30.11,30.03,8,1,8,0.03
2012-11-19,42.7,41.0,40.5,26.8,23.8,22.5,53,50,48,30.21,30.20,3,1,3,13.94
2012-11-20,65.7,45.7,30.1,25.9,19.8,12.7,66,38,17,30.25,30.13,6,1,6,0.03
2012-11-21,60.1,45.5,32.9,32.0,22.5,14.5,63,41,23,30.16,30.04,4,1,4,0.03
2012-11-22,64.4,47.7,32.8,31.6,25.1,16.9,73,45,23,30.22,30.05,10,1,10,0.03
2012-11-23,60.7,44.8,32.0,25.7,21.9,17.0,58,41,24,30.38,30.21,9,1,9,0.03
2012-11-24,65.0,43.2,28.4,30.2,21.2,18.2,68,44,21,30.27,30.03,4,1,4,0.03
2012-11-25,69.7,46.0,32.0,23.4,18.4,14.4,59,36,13,30.04,29.89,6,1,6,0.03
2012-11-26,63.9,46.9,33.7,23.7,17.3,12.5,48,31,17,30.21,29.95,8,1,8,0.03
2012-11-27,63.7,40.9,25.0,23.8,19.2,13.8,73,44,20,30.29,30.17,5,1,5,0.00
2012-11-28,69.3,45.0,29.3,25.1,19.7,15.9,65,39,17,30.26,30.10,5,1,5,0.03
2012-11-29,67.0,46.9,32.6,27.2,23.8,21.0,68,42,21,30.15,30.07,6,1,6,0.03
2012-11-30,66.1,46.8,33.5,30.6,25.4,21.6,68,45,23,30.14,30.03,5,1,5,0.03
2012-12-1,69.7,51.0,40.0,27.7,23.6,21.0,53,35,19,30.10,30.02,8,1,8,0.03
2012-12-2,70.0,48.1,34.2,25.6,19.2,11.6,60,35,12,30.10,29.96,5,1,5,0.03
2012-12-3,63.7,50.2,39.1,32.8,24.6,13.5,56,37,27,30.14,29.96,13,2,13,0.03
2012-12-4,60.8,45.3,35.5,30.7,24.8,18.0,72,47,22,30.31,30.13,7,1,7,0.03
2012-12-5,66.6,47.7,33.8,24.9,21.1,18.2,59,37,18,30.21,29.98,4,1,4,0.03
2012-12-6,63.7,50.7,37.6,24.1,21.9,18.8,50,33,21,29.98,29.84,4,1,4,0.03
2012-12-7,64.6,47.8,37.1,30.6,24.2,19.6,55,40,27,29.91,29.82,8,1,8,0.03
2012-12-8,63.4,44.3,32.6,26.9,22.0,12.2,69,44,22,29.91,29.79,8,1,8,0.03
2012-12-9,51.1,36.7,19.8,22.6,12.8,-10.2,60,38,21,30.09,29.77,22,4,22,0.03
2012-12-10,44.6,28.0,15.1,10.6,-5.3,-22.1,40,24,12,30.09,29.92,15,3,15,0.03
2012-12-11,45.4,32.8,22.7,11.7,9.3,7.1,54,38,22,30.04,29.94,11,2,11,0.03
2012-12-12,53.3,35.0,19.8,12.2,8.5,5.7,63,35,16,30.06,29.96,5,1,5,0.03
2012-12-13,58.7,40.1,23.4,20.1,13.4,5.6,54,35,21,30.05,29.87,6,1,6,0.03
2012-12-14,47.2,40.7,38.5,37.6,27.6,17.7,88,62,38,29.87,29.69,16,1,16,0.07
2012-12-17,34.9,32.5,30.8,33.1,23.7,21.7,100,70,63,30.14,29.91,4,1,4,14.06
2012-12-18,46.8,36.9,24.3,29.3,25.2,20.4,90,64,43,29.92,29.66,5,1,5,0.07
2012-12-19,41.6,34.5,21.8,32.3,18.0,2.8,80,51,31,30.18,29.54,25,7,25,0.07
2012-12-20,44.1,25.9,16.7,4.9,1.2,-3.6,53,36,16,30.36,30.18,12,2,12,0.07
2012-12-21,54.4,28.7,14.8,9.8,4.2,-1.3,66,38,15,30.27,30.10,5,0,5,0.07
2012-12-22,54.4,32.8,19.4,11.3,5.9,1.3,60,35,14,30.15,30.01,5,1,5,0.07
2012-12-23,55.6,37.7,24.3,18.7,11.9,6.3,56,36,20,30.07,29.97,8,1,8,0.07
2012-12-27,33.1,26.2,23.8,33.1,13.0,10.9,100,57,51,29.98,29.76,2,0,2,14.06
2012-12-28,36.9,28.4,20.9,18.7,13.3,7.3,73,54,36,30.11,29.82,15,3,15,0.00
2012-12-29,47.0,26.4,12.8,14.0,7.9,3.0,92,50,20,30.18,30.01,6,0,6,0.00
2012-12-30,46.3,33.7,26.6,25.8,12.5,5.2,70,42,29,30.01,29.77,4,0,4,0.00
2012-12-31,40.9,33.8,27.5,29.6,21.4,11.8,93,63,32,29.97,29.74,16,3,16,0.04
2013-1-1,35.8,27.0,21.1,19.2,13.6,9.3,75,58,37,30.11,29.97,14,3,14,0.00